[[{"header":{"parameterUnit":"m.s-1","parameterCategory":1,"la1":30.2991,"la2":30.254,"lo1":-89.0895,"lo2":-89.0444,"dy":0.0017,"dx":0.0017,"nx":28,"ny":28,"refTime":"2023-07-26T09:00:00:Z","depth":0,"parameterNumber":2,"parameterNumberName":"U-component_of_WINDS"},"data":[0,0,0,0,0,0,0,0,0,0,0,0,0,0,0,0,0,0,0,0,0,0,0,0,0,0,0,0,0,0,0,0,0,0,0,0,0,0,0,0,0,0,0,0,0,0,0,0,0,0,0,0,0,0,0,0,0,0,0.6679,0.6679,0,0.6642,0.6642,0.6641,0.6618,0.6618,0.6618,0.6618,0.6579,0.6578,0.6577,0,0,0,0,0,0,0,0,0,0,0,0,0,0.673,0.673,0.6679,0.6679,0.6678,0.6642,0.6641,0.6641,0.6618,0.6618,0.6618,0.6618,0.658,0.6578,0.6577,0,0,0,0,0,0,0,0,0,0,0,0,0,0.6702,0.6729,0.6679,0.6663,0.6661,0.6642,0.6641,0.6641,0.6618,0.6618,0.6618,0.6618,0.658,0.6579,0.6577,0.6572,0,0,0.6573,0.6572,0,0,0,0,0,0,0,0,0.6704,0.67,0.6666,0.6664,0.6662,0.6635,0.6645,0.6618,0.6618,0.6634,0.6618,0.6618,0.6598,0.6595,0.6588,0.657,0.6569,0.6573,0.6572,0.6571,0.6571,0,0,0,0,0,0,0,0.6706,0.6702,0.6664,0.6665,0.6663,0.6657,0.6653,0.664,0.6617,0.6633,0.6631,0.6627,0.6597,0.659,0.6587,0.6568,0.6573,0.6572,0.6571,0.657,0.6544,0.6544,0,0,0,0,0,0,0.671,0.6704,0.6666,0.6663,0.6683,0.6656,0.6651,0.6643,0.6618,0.6613,0.6627,0.6626,0.6592,0.6589,0.6586,0.6578,0.6571,0.657,0.6569,0.6544,0.6544,0.6544,0,0,0,0,0,0,0.6712,0.6707,0.6667,0.6683,0.6677,0.6655,0.6647,0.6643,0.6636,0.6613,0.6609,0.6624,0.6592,0.6588,0.6576,0.6576,0.657,0.6568,0.6544,0.6544,0.6544,0.6563,0,0,0,0,0,0,0.6713,0.6708,0.6706,0.6683,0.6677,0.6658,0.6647,0.6642,0.6633,0.6632,0.6609,0.6606,0.6591,0.6578,0.6574,0.6574,0.6567,0.6544,0.6544,0.6544,0.6562,0.6564,0.6565,0,0,0,0,0,0.6715,0.6713,0.6706,0.6701,0.6674,0.6658,0.6654,0.6638,0.6634,0.6631,0.6617,0.6606,0.6577,0.6577,0.6573,0.6572,0.6543,0.6544,0.6544,0.6561,0.6563,0.6565,0,0,0,0,0,0,0.6736,0.6709,0.6702,0.6692,0.6677,0.6654,0.6651,0.6641,0.6627,0.6626,0.6607,0.6602,0.6592,0.6581,0.6581,0.6566,0.6559,0.6558,0.6574,0.6575,0.6577,0.6579,0.6566,0,0,0,0,0,0.6739,0.6729,0.6706,0.67,0.6693,0.6673,0.6666,0.6655,0.6639,0.6633,0.6617,0.6602,0.659,0.6582,0.6569,0.656,0.6555,0.6558,0.6559,0.6561,0.6561,0.6555,0.6556,0.6545,0.6545,0.6545,0,0,0.6746,0.673,0.6725,0.6703,0.6691,0.668,0.6668,0.6658,0.665,0.6631,0.6619,0.6607,0.6589,0.6579,0.6573,0.6569,0.6562,0.6561,0.6562,0.6561,0.6555,0.6556,0.6557,0.6545,0.6545,0.6545,0,0,0.6753,0.6741,0.6734,0.6721,0.6703,0.669,0.6688,0.6667,0.6658,0.6645,0.6631,0.6621,0.66,0.6588,0.6579,0.6581,0.6571,0.6578,0.6585,0.658,0.6581,0.6582,0.6583,0.6583,0.6578,0.6578,0.6578,0,0.6764,0.6748,0.6731,0.6722,0.6712,0.6695,0.6688,0.6677,0.6655,0.6649,0.6645,0.6617,0.6604,0.6591,0.6591,0.6585,0.6582,0.658,0.6582,0.6583,0.6583,0.6584,0.6584,0.6579,0.6578,0.6578,0.6578,0,0.6763,0.6752,0.6748,0.6728,0.6718,0.671,0.6691,0.6683,0.6673,0.6661,0.6648,0.6631,0.6615,0.6611,0.66,0.6596,0.6594,0.6586,0.6579,0.6586,0.6586,0.6586,0.658,0.658,0.6579,0.6579,0,0,0.6782,0.6752,0.6751,0.6742,0.672,0.6711,0.6702,0.6686,0.6679,0.6665,0.6656,0.6639,0.6632,0.6621,0.661,0.6605,0.6608,0.6598,0.6597,0.66,0.6602,0.6607,0.6608,0.6601,0.6601,0.6601,0.6603,0,0.6786,0.6769,0.6753,0.6741,0.6731,0.6714,0.6706,0.6692,0.668,0.6669,0.6655,0.6643,0.6635,0.6629,0.6623,0.6609,0.6608,0.6609,0.6593,0.6593,0.6598,0.6608,0.6614,0.6617,0.6603,0.6603,0.6603,0,0.6789,0.6775,0.6762,0.6741,0.6736,0.6729,0.6713,0.6703,0.6687,0.6678,0.6667,0.6654,0.6644,0.6637,0.6622,0.6623,0.6615,0.6607,0.6607,0.6605,0.6598,0.6606,0.6617,0.6618,0.6603,0.6603,0.6603,0,0.6804,0.6782,0.6772,0.6764,0.674,0.6735,0.6725,0.6708,0.6699,0.6685,0.6679,0.6664,0.6656,0.6644,0.6628,0.6625,0.6614,0.6607,0.6607,0.6607,0.6605,0.6606,0.6616,0.6601,0.6601,0.6601,0.6601,0,0.681,0.6803,0.6779,0.6772,0.6764,0.6746,0.6738,0.6726,0.6711,0.6702,0.6686,0.6678,0.6657,0.6646,0.6633,0.6622,0.6619,0.6611,0.6608,0.6613,0.6614,0.6608,0.6607,0.6601,0.6601,0.6601,0.6601,0,0.6826,0.6809,0.6797,0.6775,0.6769,0.6764,0.6744,0.6737,0.6725,0.6713,0.6709,0.6689,0.6675,0.6658,0.6639,0.663,0.6621,0.6616,0.6626,0.6624,0.6626,0.6626,0.6632,0.6632,0.6617,0.6617,0.6618,0,0.6831,0.6825,0.6803,0.6795,0.6785,0.6774,0.6765,0.6747,0.6738,0.6719,0.6714,0.6699,0.6687,0.6666,0.6649,0.6634,0.6628,0.6632,0.6626,0.6631,0.6628,0.6629,0.6628,0.6633,0.6633,0.6633,0.6634,0,0.6842,0.6834,0.6822,0.6807,0.6797,0.6784,0.677,0.6765,0.6744,0.6735,0.6721,0.6711,0.6692,0.6677,0.666,0.6649,0.6638,0.6635,0.6635,0.6639,0.6646,0.6642,0.663,0.6635,0.6635,0.6635,0.6635,0.6635,0.6853,0.6847,0.683,0.6817,0.6805,0.6792,0.6785,0.6771,0.6759,0.6741,0.6731,0.6718,0.6701,0.6677,0.6666,0.6655,0.6651,0.665,0.6649,0.6649,0.6651,0.6648,0.6652,0.6652,0.6652,0.6652,0.6652,0,0.6863,0.6851,0.6839,0.6821,0.681,0.6801,0.6785,0.6777,0.6765,0.6751,0.6738,0.6722,0.6708,0.669,0.6675,0.6669,0.6663,0.6666,0.6666,0.6663,0.6656,0.6658,0.667,0.667,0.667,0.667,0.667,0.667,0.6867,0.6856,0.6846,0.6829,0.6817,0.6804,0.6796,0.6784,0.6773,0.6755,0.6743,0.6732,0.6716,0.6699,0.6685,0.668,0.6675,0.6679,0.6672,0.6666,0.6664,0.6662,0.6664,0.6678,0.6678,0.6681,0.6681,0.6681]},{"header":{"parameterUnit":"m.s-1","parameterCategory":1,"la1":30.2991,"la2":30.254,"lo1":-89.0895,"lo2":-89.0444,"dy":0.0017,"dx":0.0017,"nx":28,"ny":28,"refTime":"2023-07-26T09:00:00:Z","depth":0,"parameterNumber":3,"parameterNumberName":"V-component_of_WINDS"},"data":[0,0,0,0,0,0,0,0,0,0,0,0,0,0,0,0,0,0,0,0,0,0,0,0,0,0,0,0,0,0,0,0,0,0,0,0,0,0,0,0,0,0,0,0,0,0,0,0,0,0,0,0,0,0,0,0,0,0,-1.5254,-1.5253,0,-1.5197,-1.5196,-1.5195,-1.514,-1.514,-1.5139,-1.5138,-1.5079,-1.5078,-1.5077,0,0,0,0,0,0,0,0,0,0,0,0,0,-1.5316,-1.5315,-1.5254,-1.5253,-1.5252,-1.5197,-1.5196,-1.5195,-1.5141,-1.514,-1.5139,-1.5138,-1.5079,-1.5078,-1.5077,0,0,0,0,0,0,0,0,0,0,0,0,0,-1.5277,-1.5315,-1.5254,-1.5218,-1.5215,-1.5197,-1.5196,-1.5195,-1.5141,-1.514,-1.5139,-1.5138,-1.5079,-1.5078,-1.5077,-1.5089,0,0,-1.5072,-1.5072,0,0,0,0,0,0,0,0,-1.5279,-1.5275,-1.5224,-1.5221,-1.5217,-1.5175,-1.5196,-1.5159,-1.5141,-1.5169,-1.5138,-1.5137,-1.5111,-1.5107,-1.5099,-1.5086,-1.5083,-1.5072,-1.5071,-1.5071,-1.507,0,0,0,0,0,0,0,-1.5282,-1.5277,-1.5231,-1.5224,-1.5219,-1.5205,-1.5199,-1.5189,-1.5147,-1.5166,-1.5162,-1.5156,-1.5109,-1.51,-1.5097,-1.5082,-1.5072,-1.5071,-1.507,-1.5069,-1.5079,-1.508,0,0,0,0,0,0,-1.529,-1.5279,-1.5233,-1.5229,-1.5246,-1.5205,-1.5198,-1.5189,-1.5146,-1.5139,-1.5157,-1.5154,-1.5103,-1.5099,-1.5095,-1.5108,-1.5071,-1.5069,-1.5068,-1.5078,-1.5079,-1.5081,0,0,0,0,0,0,-1.5292,-1.5286,-1.5235,-1.5253,-1.5246,-1.5205,-1.5196,-1.5188,-1.518,-1.514,-1.5132,-1.5156,-1.5102,-1.5097,-1.5091,-1.5105,-1.5069,-1.5067,-1.5077,-1.5078,-1.508,-1.5133,0,0,0,0,0,0,-1.5294,-1.5287,-1.5291,-1.5254,-1.5245,-1.5233,-1.5197,-1.5188,-1.5178,-1.5173,-1.5136,-1.5129,-1.5101,-1.5094,-1.509,-1.5102,-1.5066,-1.5075,-1.5077,-1.5079,-1.513,-1.5137,-1.5142,0,0,0,0,0,-1.5296,-1.5308,-1.5292,-1.5286,-1.5249,-1.5234,-1.5229,-1.5196,-1.5179,-1.5183,-1.5157,-1.5131,-1.5104,-1.5094,-1.5089,-1.5101,-1.5074,-1.5077,-1.5079,-1.5128,-1.5135,-1.5142,0,0,0,0,0,0,-1.5347,-1.5302,-1.5284,-1.5284,-1.5263,-1.5224,-1.5228,-1.5205,-1.5188,-1.5184,-1.5144,-1.5136,-1.5136,-1.5117,-1.5107,-1.5112,-1.5085,-1.5087,-1.5124,-1.5131,-1.5137,-1.5142,-1.5065,0,0,0,0,0,-1.5359,-1.535,-1.5311,-1.5315,-1.5305,-1.5269,-1.5261,-1.5238,-1.5214,-1.5205,-1.5179,-1.5157,-1.5144,-1.5136,-1.5122,-1.5127,-1.5119,-1.5133,-1.5139,-1.5145,-1.5147,-1.515,-1.5157,-1.5089,-1.5089,-1.5089,0,0,-1.5382,-1.5356,-1.5353,-1.5324,-1.5306,-1.5298,-1.5262,-1.5255,-1.5249,-1.5204,-1.5198,-1.5178,-1.5151,-1.5152,-1.5151,-1.5137,-1.5164,-1.5148,-1.5152,-1.5151,-1.5154,-1.516,-1.5166,-1.509,-1.509,-1.509,0,0,-1.542,-1.54,-1.5402,-1.5384,-1.5357,-1.5333,-1.5333,-1.5298,-1.5284,-1.5278,-1.5244,-1.5237,-1.5214,-1.5197,-1.5186,-1.5221,-1.5196,-1.5217,-1.5248,-1.5252,-1.5258,-1.5262,-1.5277,-1.5282,-1.5219,-1.5219,-1.5219,0,-1.5453,-1.544,-1.5405,-1.5401,-1.5391,-1.535,-1.5353,-1.5337,-1.5306,-1.53,-1.5284,-1.5257,-1.5236,-1.5233,-1.5242,-1.5233,-1.5234,-1.5221,-1.526,-1.5264,-1.5268,-1.5281,-1.5286,-1.5222,-1.5222,-1.5221,-1.5221,0,-1.5482,-1.5474,-1.5479,-1.5452,-1.5441,-1.544,-1.5406,-1.5399,-1.5378,-1.5356,-1.5351,-1.5324,-1.5305,-1.5302,-1.528,-1.5297,-1.5289,-1.5267,-1.524,-1.5278,-1.529,-1.5294,-1.5226,-1.5225,-1.5224,-1.5223,0,0,-1.5551,-1.5506,-1.5509,-1.5497,-1.5464,-1.5457,-1.5455,-1.5437,-1.5433,-1.5413,-1.5411,-1.5394,-1.5375,-1.5362,-1.5337,-1.5341,-1.5373,-1.5319,-1.5318,-1.5331,-1.5392,-1.541,-1.5416,-1.5356,-1.5357,-1.5357,-1.5395,0,-1.5586,-1.558,-1.555,-1.5553,-1.5546,-1.5509,-1.5507,-1.5487,-1.5467,-1.5458,-1.5435,-1.5425,-1.5399,-1.5391,-1.5393,-1.5369,-1.5385,-1.5365,-1.5355,-1.5355,-1.5364,-1.5422,-1.544,-1.5477,-1.5399,-1.54,-1.54,0,-1.5625,-1.561,-1.5613,-1.5583,-1.5578,-1.5578,-1.556,-1.5551,-1.5529,-1.5514,-1.5501,-1.5474,-1.547,-1.5445,-1.544,-1.5427,-1.5421,-1.5409,-1.541,-1.5408,-1.5381,-1.5424,-1.5487,-1.5494,-1.5407,-1.5406,-1.5406,0,-1.5678,-1.5657,-1.5657,-1.5648,-1.5612,-1.5612,-1.5597,-1.5574,-1.5566,-1.555,-1.5544,-1.5528,-1.5519,-1.5508,-1.5478,-1.5461,-1.5477,-1.5448,-1.5465,-1.5466,-1.5471,-1.5472,-1.5537,-1.5465,-1.5465,-1.5465,-1.5465,0,-1.572,-1.5724,-1.568,-1.5681,-1.5684,-1.5649,-1.5654,-1.5635,-1.5615,-1.5611,-1.5577,-1.5574,-1.5534,-1.5527,-1.5504,-1.5505,-1.55,-1.5489,-1.5483,-1.5493,-1.5495,-1.5489,-1.5486,-1.5466,-1.5466,-1.5466,-1.5465,0,-1.5779,-1.575,-1.5748,-1.5715,-1.5707,-1.5711,-1.5683,-1.5682,-1.566,-1.5656,-1.5653,-1.5619,-1.5609,-1.5577,-1.5559,-1.5543,-1.5552,-1.5539,-1.556,-1.5556,-1.5576,-1.5576,-1.5641,-1.5649,-1.5571,-1.5572,-1.5572,0,-1.5809,-1.5812,-1.578,-1.5775,-1.5762,-1.5755,-1.5747,-1.5713,-1.5706,-1.5682,-1.5684,-1.5672,-1.566,-1.5646,-1.5619,-1.5606,-1.5594,-1.5618,-1.5591,-1.5602,-1.5596,-1.5597,-1.5598,-1.5624,-1.5625,-1.5626,-1.5626,0,-1.5866,-1.5852,-1.5842,-1.5828,-1.582,-1.5806,-1.5791,-1.5789,-1.5752,-1.5746,-1.5736,-1.5727,-1.571,-1.5698,-1.5681,-1.5665,-1.564,-1.5635,-1.5638,-1.5649,-1.5662,-1.5658,-1.5577,-1.5634,-1.5633,-1.5632,-1.5632,-1.5632,-1.5913,-1.5914,-1.5893,-1.5883,-1.5868,-1.5856,-1.5854,-1.5833,-1.5824,-1.5808,-1.5788,-1.5781,-1.576,-1.5734,-1.5721,-1.5715,-1.5701,-1.5706,-1.5707,-1.5709,-1.5715,-1.5662,-1.5711,-1.5711,-1.5711,-1.571,-1.571,0,-1.5969,-1.5954,-1.5946,-1.5927,-1.592,-1.5897,-1.588,-1.5876,-1.587,-1.5853,-1.5843,-1.5832,-1.5821,-1.5795,-1.5782,-1.5782,-1.5771,-1.578,-1.578,-1.5778,-1.5727,-1.5726,-1.579,-1.579,-1.579,-1.579,-1.579,-1.579,-1.5998,-1.6,-1.5984,-1.5979,-1.5963,-1.5957,-1.5949,-1.5937,-1.5924,-1.5914,-1.5905,-1.5888,-1.5867,-1.5853,-1.5843,-1.5835,-1.5832,-1.5846,-1.5835,-1.5789,-1.5781,-1.5774,-1.5773,-1.5846,-1.5846,-1.5887,-1.5887,-1.5887]}]]